Location: Beddau
(51.5575°N, 3.3561°W)
Time: 17:51:46
(UTC+00:00)

USA 306 - Pass Details

Date: 03 March 2021
Orbit: 564 x 577 km, 54.0° (Epoch: 13 April)

Event Time Altitude Azimuth Distance (km) Brightness Sun altitude
Rises 19:57:57 0° 280° (W) 2,773 8.1 -19.4°
Reaches altitude 10° 20:00:14 10° 283° (WNW) 1,873 6.8 -19.7°
Maximum altitude 20:04:28 63° 5° (N) 638 3.1 -20.4°
Enters shadow 20:05:20 49° 59° (ENE) 735 3.1 -20.5°
